Regional Weather Roundup
Issued by NWS

Home | Current Version | Previous Version | Graphics & Text | Print | Product List | Glossary On
Versions: 1 2 3 4 5 6 7 8 9 10 11 12 13 14 15 16 17 18 19 20 21 22 23 24 25 26 27 28 29 30 31 32 33 34 35 36 37 38 39 40 41 42 43 44 45 46 47 48 49 50
000
ASUS45 KBOU 200707
RWRCO

WEATHER ROUNDUP FOR COLORADO
NATIONAL WEATHER SERVICE DENVER/BOULDER CO
100 AM MDT SAT SEP 20 2014

NOTE: "FAIR" INDICATES FEW OR NO CLOUDS BELOW 12000 FEET WITH NO
SIGNIFICANT WEATHER AND/OR OBSTRUCTIONS TO VISIBILITY.

COZ001>005-013-030-031-200800-
...NORTHWEST COLORADO...

CITY           SKY/WX    TMP DP  RH WIND       PRES   REMARKS
CRAIG          CLEAR     47  41  80 CALM      30.22R
HAYDEN         CLEAR     55  41  58 CALM      30.23R
MEEKER         NOT AVBL
MOUNT WERNER   NOT AVBL
STEAMBOAT SPGS CLEAR     51  44  76 CALM      30.25R
WALDEN         CLEAR     41  36  81 SE7       30.32R
$$

COZ006>008-011-200800-
...WEST CENTRAL VALLEYS...

CITY           SKY/WX    TMP DP  RH WIND       PRES   REMARKS
GRAND JUNCTION CLEAR     68  43  40 VRB5      30.05R
MONTROSE       CLEAR     60  45  57 MISG      30.15R
EAGLE          CLEAR     55  45  67 SE5       30.24R
RIFLE          CLEAR     57  44  62 E6        30.14R
DELTA          CLEAR     64  42  44 E6        30.10R
NUCLA          CLEAR     61  45  55 SE8       30.17R
$$

COZ017>023-064>068-200800-
...SOUTHWEST COLORADO...

CITY           SKY/WX    TMP DP  RH WIND       PRES   REMARKS
DURANGO        CLEAR     56  43  61 CALM      30.15S
CORTEZ         CLEAR     56  47  71 E5        30.12S
PAGOSA SPRINGS CLEAR     51  44  77 CALM      30.24S
TELLURIDE      NOT AVBL
WOLF CREEK PAS CLEAR     46  32  57 NE16      30.54S
$$

COZ009-010-012-014-032>034-037-058>063-200800-
...CENTRAL COLORADO...

CITY           SKY/WX    TMP DP  RH WIND       PRES   REMARKS
ASPEN          PTCLDY    52  40  63 SW8       30.29R
BUENA VISTA    CLEAR     50  37  61 NW8       30.30S
COPPER MTN     CLEAR     52  36  54 W12       30.59S
BERTHOUD PASS  FAIR      41  39  93 NW12      30.62F
COTTONWOOD PAS CLEAR     61  32  33 CALM      30.43R
GUNNISON       CLEAR     50  37  62 CALM      30.30R
KREMMLING      PTCLDY    50  41  71 CALM      30.29S
LEADVILLE      CLEAR     43  33  68 NE5       30.43R
MONARCH PASS   CLEAR     46  32  57 E15       30.66S
SALIDA         CLEAR     54  39  57 SW9       30.34S
SUNLIGHT       CLEAR     52  41  66 NE5       30.52R
WILKERSON PASS NOT AVBL
$$

COZ069>075-200800-
...SAN LUIS VALLEY/SANGRE DE CRISTO MOUNTAINS...

CITY           SKY/WX    TMP DP  RH WIND       PRES   REMARKS
ALAMOSA        PTCLDY    50  36  58 SE8       30.23R
LA VETA PASS   CLEAR     54  34  47 S3        30.43S
SAGUACHE       NOT AVBL
$$

COZ035-036-038>040-200800-
...NORTHERN COLORADO FRONT RANGE...

CITY           SKY/WX    TMP DP  RH WIND       PRES   REMARKS
DENVER INTL AP PTCLDY    64  46  52 SW9       30.10R
DMNS CITY PARK   N/A     63  52  67 S3        30.10S
AURORA         PTCLDY    63  45  52 SW5       30.13R
FRONT RANGE AP CLEAR     63  50  63 S7        30.10S
ERIE MUNI ARPT CLEAR     63  48  57 CALM      30.08S
BOULDER MUN AP CLEAR     64  46  52 SW5       30.09S
CENTENNIAL     PTCLDY    63  47  55 VRB3      30.14R
BROOMFIELD     CLEAR     63  46  55 SW5       30.12F
FORT COLLINS   CLEAR     64  48  55 CALM      30.08S
LONGMONT       CLEAR     64  48  55 W3        30.10R
$$

COZ041-046-047-076>085-087-088-200800-
...PIKES PEAK/PALMER DIVIDE AND SOUTHERN FOOTHILLS...

CITY           SKY/WX    TMP DP  RH WIND       PRES   REMARKS
COLO. SPRINGS  CLEAR     67  41  38 NW10      30.15R
A. F. ACADEMY  CLEAR     64  43  46 N10       30.18R
ELLICOTT       NOT AVBL
FALCON         CLEAR     61  42  50 N12       30.20R
FORT CARSON    CLEAR     63  42  46 NW13      30.11R
LIMON          PTCLDY    62  49  62 NE14      30.08S
MONUMENT HILL  CLEAR     57  43  58 E7        30.21S
TRINIDAD       CLEAR     66  56  70 W20       30.08R
$$

COZ042>045-048>051-090-091-200800-
...NORTHEAST COLORADO...

CITY           SKY/WX    TMP DP  RH WIND       PRES   REMARKS
GREELEY ARPT   PTCLDY    61  48  63 CALM      30.06R
AKRON          MOCLDY    65  53  65 SW10      30.01F
BURLINGTON     PTCLDY    65  59  81 S9        30.01S
WRAY           CLOUDY    76  47  35 N6        29.92R
STERLING       MOCLDY    63  59  88 CALM      29.97R
HOLYOKE        CLOUDY    70  52  52 NW12      29.94S
FORT MORGAN    MOCLDY    61  54  76 W7        30.03R
$$

COZ086-089-092>099-200800-
...SOUTHEAST COLORADO...

CITY           SKY/WX    TMP DP  RH WIND       PRES   REMARKS
PUEBLO         CLEAR     62  37  39 W6        30.01R
LA JUNTA       CLEAR     64  54  69 CALM      29.97R
LAMAR          CLEAR     65  60  84 S6        29.95R
SPRINGFIELD      N/A     64  63  96 S20       30.02R
$$



USA.gov is the U.S. government's official web portal to all federal, state and local government web resources and services.